Probability
14 16 17 14 11 10 9 8 7 7 6 6 7 9 10 9 8 7 7 7 6 5 5 5 6 6 6 6 6 6 6 6 5 5 6 7 7 7 7 6 4 4 5
11 12 14 13 11 10 9 8 7 6 6 6 6 8 9 8 7 6 6 5 4 4 5 5 5 6 6 6 6 6 6 5 5 5 6 7 8 9 9 7 4 3 3
6 8 10 10 10 9 8 7 6 5 4 5 5 6 8 7 5 4 3 2 2 3 3 3 3 3 3 4 4 4 4 5 5 6 6 7 8 9 9 7 5 3 2
5 6 8 8 9 8 7 7 6 3 2 3 4 5 6 5 3 2 2 1 1 1 1 1 1 1 1 2 2 2 3 5 6 6 6 6 7 8 7 6 5 3 2
7 7 7 7 8 8 6 6 5 3 1 1 2 3 3 3 1 1 1 0 1 1 1 1 1 0 0 1 1 1 1 3 4 4 4 5 6 6 4 4 4 4 3
8 8 7 7 7 8 7 6 6 4 2 1 1 1 2 2 0 0 0 0 1 2 3 2 2 1 0 0 0 0 0 1 1 1 2 4 5 4 3 2 3 3 4
9 7 6 6 7 7 7 6 7 6 4 3 2 3 4 3 1 0 0 0 1 2 3 3 3 2 1 1 1 0 0 0 0 0 1 2 3 3 3 2 2 3 4
7 6 6 6 6 6 6 7 7 8 6 5 5 6 7 5 2 0 0 0 0 1 3 4 4 3 2 2 2 1 1 1 0 0 0 1 2 3 3 3 3 3 2
5 6 6 6 6 6 6 7 8 8 7 6 6 7 8 7 4 1 0 0 1 1 3 3 4 3 3 3 3 3 2 2 1 0 0 0 1 1 2 3 2 1 1
4 6 6 7 7 7 8 9 9 8 7 6 5 6 7 7 5 2 0 1 2 3 3 3 3 3 2 2 3 3 3 2 1 0 0 0 0 0 1 2 1 0 0
5 6 7 8 8 8 10 11 9 7 7 5 4 5 6 6 5 3 1 1 2 3 3 3 3 1 1 1 1 2 2 2 1 0 0 0 0 0 0 0 0 0 0
7 8 8 9 9 9 11 11 8 6 6 5 4 4 5 5 4 2 1 0 1 1 2 2 2 1 0 0 0 1 1 1 0 0 0 0 0 0 0 0 1 1 1
9 9 9 8 9 10 10 8 6 4 4 5 4 3 4 4 2 1 0 0 0 0 1 1 1 0 0 0 0 0 0 0 0 0 0 0 0 0 1 1 2 2 2
9 9 9 7 8 9 8 6 4 3 3 3 3 3 2 2 1 0 0 0 0 0 0 0 0 0 0 0 0 0 0 0 0 0 0 1 1 1 2 3 2 1 1
8 8 6 5 5 6 5 4 3 2 1 1 2 1 1 1 0 0 0 0 0 0 0 0 0 0 0 0 1 0 0 0 0 0 0 1 1 2 2 3 2 1 0
7 7 5 3 3 4 3 2 1 1 0 0 0 0 0 0 0 0 0 0 0 0 0 0 0 0 0 0 0 0 0 0 0 1 1 0 1 1 1 2 1 0 0
8 7 5 3 3 4 3 2 1 0 0 0 0 0 0 0 0 0 0 0 0 0 0 0 0 0 0 0 0 0 0 0 0 1 1 0 0 0 1 1 1 0 0
7 7 5 3 2 4 5 3 1 0 0 0 0 0 0 0 0 0 0 0 0 0 0 0 0 0 0 0 0 0 0 0 0 1 1 0 0 0 0 0 0 0 0
5 5 4 2 2 4 5 3 1 0 0 0 0 0 0 0 0 0 0 0 0 0 0 0 0 0 0 0 0 0 0 0 0 0 0 0 0 0 0 0 0 0 0
4 4 4 2 2 2 3 2 0 0 0 0 0 0 0 0 0 0 0 0 0 0 0 0 0 0 0 0 0 0 0 0 1 0 0 0 0 0 0 0 0 0 0
3 3 3 2 1 1 2 1 0 0 0 0 0 0 0 0 0 0 0 0 0 0 0 0 0 0 0 0 0 0 0 0 0 0 0 0 0 0 0 0 0 0 0
4 4 3 3 1 1 3 2 1 0 0 0 0 0 0 0 0 0 0 0 0 0 0 0 0 0 0 0 0 0 0 0 0 0 0 0 0 0 0 0 0 0 0
3 4 4 3 2 1 2 2 1 0 0 0 0 0 0 1 1 1 1 1 1 1 1 1 0 0 0 0 0 0 0 0 0 0 0 0 0 0 0 0 0 0 0
2 3 3 4 3 1 1 2 2 1 0 0 1 1 1 1 2 2 2 3 3 3 2 2 1 0 0 0 0 0 0 0 0 0 0 0 0 0 0 0 0 0 0
0 1 2 3 3 1 1 2 2 1 0 0 1 2 1 1 1 2 2 3 4 3 2 2 1 0 0 0 0 0 0 0 0 0 0 0 0 0 0 0 0 0 0
0 0 1 3 2 1 1 2 2 1 0 0 1 2 1 0 0 1 1 2 3 2 1 1 0 0 0 0 0 0 0 0 0 0 0 0 1 1 1 0 0 0 0
Wind_Speed
2 2 2 1 1 1 0 1 1 1 1 1 0 1 0 0 0 1 1 1 1 1 1 1 2 2 2 2 2 2 2 1 2 3 2 1 1 1 1 2 2 3 4
2 2 2 1 1 1 1 1 1 1 1 1 0 1 1 1 0 0 1 2 1 2 2 2 2 2 2 2 2 2 2 2 2 3 3 2 2 2 1 2 3 3 3
3 2 2 2 1 1 1 1 1 1 1 1 1 1 1 1 1 0 1 1 2 2 2 2 2 2 2 2 2 2 2 2 1 2 3 2 2 2 1 2 3 2 3
2 2 2 2 1 1 1 1 0 1 1 1 1 1 1 1 1 1 1 1 2 2 2 2 1 1 1 2 2 2 2 2 2 2 2 2 2 2 1 2 2 2 2
2 2 2 1 2 1 1 1 1 1 1 1 1 1 1 1 1 2 1 2 2 2 2 1 1 1 0 0 1 1 2 2 2 2 2 2 2 2 2 2 2 2 2
1 2 2 1 1 1 1 1 1 1 1 2 2 2 2 2 1 2 1 2 2 2 2 2 1 1 0 1 1 1 2 2 2 2 2 2 3 3 2 3 2 2 2
0 1 1 1 1 1 1 1 1 0 1 2 2 2 1 2 1 1 1 1 2 2 2 2 3 2 0 1 2 2 2 3 4 3 3 3 3 3 2 3 3 2 3
0 0 1 1 1 1 1 1 1 1 1 1 2 1 1 2 1 1 2 2 2 2 3 3 2 1 2 2 1 1 1 2 3 4 3 4 3 3 3 3 3 3 3
0 1 1 0 0 1 1 1 1 1 1 1 2 1 1 1 1 1 2 2 1 2 2 2 1 1 2 1 1 2 2 3 4 3 4 5 5 6 4 2 2 2 3
1 1 1 1 1 1 1 1 1 1 2 2 1 1 1 1 1 2 2 2 2 2 2 1 1 0 1 1 1 2 3 4 3 4 4 5 5 6 6 5 3 3 3
1 1 1 1 1 1 0 1 1 2 2 2 2 2 2 1 2 2 2 1 3 3 2 1 1 1 1 2 3 3 5 5 4 3 3 3 3 3 3 4 4 4 3
1 2 1 1 2 1 0 1 2 2 2 3 2 2 1 1 1 1 1 2 3 3 3 2 1 2 3 5 4 5 6 5 3 3 3 2 2 2 2 3 4 5 4
1 1 1 2 2 1 1 2 2 2 2 2 2 1 1 0 1 1 1 2 4 3 2 2 3 5 4 4 6 6 4 3 3 3 3 3 2 3 2 2 3 3 4
1 2 2 2 1 1 1 1 1 1 2 2 2 2 1 1 1 1 1 1 2 2 2 3 5 6 5 4 4 3 3 2 2 2 2 2 2 2 2 2 2 2 2
1 1 3 2 1 0 0 1 1 1 1 1 2 2 2 1 1 1 2 2 2 2 3 3 3 2 3 3 2 2 1 1 2 2 2 2 2 2 2 2 1 2 2
2 2 2 2 1 2 1 0 2 1 2 2 2 2 1 1 2 2 3 4 4 4 3 3 3 3 2 2 2 2 1 1 1 2 2 2 2 2 2 2 2 2 2
2 2 3 3 2 2 1 1 1 1 2 2 3 3 3 3 3 4 4 4 5 2 2 3 3 2 2 2 2 2 2 1 1 2 2 2 2 2 2 2 2 2 2
3 2 3 3 3 2 2 2 2 2 2 1 2 4 5 5 5 4 3 2 3 2 3 3 2 2 2 2 2 2 2 2 1 2 2 2 2 3 3 2 2 2 2
3 2 3 3 3 3 2 2 2 2 2 1 0 1 3 4 4 4 2 2 3 3 3 2 2 2 2 2 2 2 2 2 2 2 2 2 3 3 3 3 3 3 3
2 3 3 4 3 3 2 3 3 2 1 1 1 0 0 1 1 1 2 3 3 3 2 2 2 2 1 2 2 2 3 2 2 2 2 2 2 2 3 3 3 3 3
2 2 3 4 3 3 3 3 3 3 2 1 0 0 1 2 2 2 1 2 2 2 2 2 2 2 2 1 2 3 3 3 3 2 2 2 2 2 2 2 2 2 2
3 2 2 3 3 3 3 4 4 3 3 2 1 0 1 1 2 1 1 1 1 1 1 2 2 2 3 3 2 2 2 3 3 4 4 3 3 2 2 2 2 2 2
3 3 2 2 2 3 3 3 4 4 3 3 2 1 1 2 2 2 2 1 1 1 2 2 2 3 3 3 3 3 3 3 4 4 4 4 3 3 2 2 3 3 3
3 3 3 2 2 2 3 3 3 4 4 3 2 2 1 1 2 2 2 2 1 2 2 2 2 4 5 3 3 3 4 4 5 4 5 5 4 3 3 3 3 3 2
3 2 3 3 3 3 3 3 3 3 3 3 2 2 2 2 2 2 2 2 2 2 2 2 2 3 5 5 5 5 5 4 4 5 5 4 4 4 3 4 3 3 2
3 2 2 2 2 3 3 3 3 4 3 3 3 2 2 2 2 2 2 2 2 2 3 3 4 5 5 5 5 5 4 5 5 6 5 4 4 4 3 3 3 3 3
Wind_Direction
101 82 77 78 44 52 53 8 21 20 15 350 342 333 282 236 214 244 276 274 240 271 282 274 268 272 280 291 288 286 274 271 280 295 294 302 290 269 253 238 221 215 214
90 74 69 79 54 32 32 30 39 55 31 340 333 305 290 293 269 265 284 309 299 281 280 277 273 273 269 275 282 286 281 267 257 286 303 309 291 274 246 245 260 253 237
87 80 63 74 73 57 46 43 45 58 30 20 6 301 306 334 353 342 312 312 316 308 290 273 274 280 280 287 289 287 287 290 274 271 280 276 269 263 260 266 262 260 265
93 89 77 80 82 75 92 103 88 74 62 17 335 313 309 330 356 353 349 330 317 320 321 318 318 301 295 309 299 304 303 304 291 280 283 286 283 273 256 255 265 249 251
105 104 103 105 103 85 66 54 59 24 333 327 325 319 306 299 328 348 349 333 339 326 325 335 343 352 341 263 303 321 320 308 298 289 292 298 299 311 292 277 267 260 253
100 106 99 100 101 94 90 72 76 39 346 345 352 339 330 317 35 36 10 345 323 315 311 307 300 268 165 161 211 258 272 269 283 286 287 290 299 303 304 290 275 268 266
44 113 124 113 85 61 19 65 54 37 0 351 329 314 333 356 33 42 346 304 296 300 296 295 296 304 279 227 219 240 272 266 241 241 265 274 281 288 293 298 295 285 271
270 62 124 130 116 68 21 14 3 334 326 302 306 324 325 332 330 268 273 261 276 287 281 273 270 315 321 335 309 290 277 272 243 231 241 258 269 273 268 262 262 268 268
288 358 335 317 78 63 4 322 281 268 278 280 284 285 295 321 310 304 277 277 273 282 294 315 297 270 313 334 310 290 289 288 274 260 241 252 261 261 251 264 266 264 273
348 326 342 5 11 326 282 288 290 271 263 267 278 286 285 270 258 265 266 293 300 298 292 314 352 9 19 25 312 292 284 285 294 284 270 260 253 252 239 223 240 255 263
348 343 350 348 284 260 243 281 273 268 272 273 267 257 246 229 207 217 213 291 312 314 314 333 2 47 328 290 276 266 263 279 289 277 270 263 258 252 238 221 220 234 251
353 352 339 307 288 296 300 287 281 275 264 262 261 259 241 174 145 194 210 259 312 318 317 338 4 323 302 290 279 271 273 283 277 276 272 269 265 261 254 244 232 226 228
354 346 331 298 286 292 268 280 274 274 286 290 284 296 320 57 84 108 224 282 300 300 305 300 293 283 285 282 274 275 274 269 272 280 287 287 283 274 264 250 242 236 236
335 329 300 278 267 311 312 303 310 339 330 334 334 339 352 11 35 32 345 310 299 292 294 291 275 263 267 273 278 267 249 243 253 267 278 288 292 292 286 270 261 249 251
274 276 282 271 240 202 287 349 345 19 329 304 335 343 339 340 329 321 313 316 325 342 320 282 271 262 263 257 258 246 224 233 267 280 284 293 299 301 298 298 284 263 248
281 282 279 275 234 229 209 126 33 285 232 217 239 262 304 301 280 304 307 304 305 314 308 289 288 288 292 302 307 301 286 272 272 281 282 286 292 297 294 295 296 291 271
291 292 290 291 271 252 227 217 234 260 259 257 250 254 248 261 282 292 301 314 306 297 276 282 290 308 311 312 310 309 314 302 293 289 284 282 286 290 283 282 282 284 285
292 285 291 295 297 293 277 250 242 248 259 245 231 232 231 234 248 263 283 324 305 277 272 289 312 325 326 324 325 319 314 322 313 306 305 308 311 310 308 306 301 297 293
287 291 294 303 301 298 301 298 296 292 280 277 293 242 235 234 250 262 252 268 283 293 297 311 326 336 336 332 330 326 326 317 313 311 318 327 318 312 310 310 311 311 306
276 296 294 298 304 310 308 310 308 302 295 299 270 331 329 298 289 273 242 259 277 291 307 321 327 327 331 333 329 322 311 302 310 311 307 304 300 298 300 305 309 306 301
266 283 289 295 312 326 326 317 310 305 304 289 293 116 200 259 275 268 250 268 292 310 324 324 320 325 332 323 314 321 326 327 333 327 317 304 298 300 302 302 298 295 295
289 290 289 297 311 324 329 324 320 324 328 333 359 78 206 291 318 324 322 298 305 305 334 334 332 344 345 334 331 330 335 336 338 332 319 307 302 298 293 291 292 290 290
289 291 286 294 310 326 317 322 328 328 327 329 337 6 333 321 340 345 336 337 359 355 7 1 345 343 346 353 352 352 355 346 330 325 321 315 315 311 302 298 296 299 295
283 291 297 302 308 316 319 320 321 325 326 328 336 339 329 323 324 332 336 345 4 4 359 2 2 358 1 3 356 5 7 351 337 328 323 315 315 320 321 315 308 311 308
280 288 296 306 316 320 321 320 321 323 330 334 337 339 343 341 333 328 341 357 5 10 8 12 17 11 11 18 17 14 8 1 354 336 324 318 316 314 307 304 308 315 308
281 281 284 306 321 324 324 324 327 331 336 336 338 347 353 343 335 334 348 13 20 21 18 19 19 22 15 18 20 16 7 357 346 333 318 311 312 314 314 306 311 310 302